Sarasota, FL

2:12 AM EDT on October 23, 2019 (GMT -0400)
Sarasota-bradenton

Weather History for KSRQ - August, 2019

Change the Weather History Date:

Thursday, August 8, 2019

  Actual Average Record
Temperature  
Mean Temperature 85 °F 82 °F  
Max Temperature 91 °F 90 °F 96 °F (1973)
Min Temperature 78 °F 75 °F 67 °F (1916)
Degree Days  
Heating Degree Days 0 0  
Month to date heating degree days 0 0  
Since 1 June heating degree days 0 0  
Since 1 July heating degree days 0 0  
Cooling Degree Days 20 17  
Month to date cooling degree days 149 136  
Year to date cooling degree days 2420 1898  
Since 1 June cooling degree days 1263 1147  
Growing Degree Days 34 (Base 50)    
Moisture  
Dew Point 77 °F    
Average Humidity 77    
Maximum Humidity 91    
Minimum Humidity 68    
Precipitation  
Precipitation 0.00 in 0.26 in 2.90 in (1959)
Month to date precipitation 2.32 2.16  
Year to date precipitation 30.85 31.35  
Sea Level Pressure  
Sea Level Pressure 29.99 in    
Wind  
Wind Speed 8 mph (WSW)    
Max Wind Speed 13 mph    
Max Gust Speed -    
Visibility 10 miles    
Events      
T = Trace of Precipitation, MM = Missing Value Source: NWS Daily Summary

Daily Weather History Graph

Daily Weather History Graph

Search for Another Location

Airport or City:

Astronomy

Aug. 08, 2019 Rise Set
Actual Time 6:57 AM EDT 8:13 PM EDT
Civil Twilight 6:32 AM EDT 8:38 PM EDT
Nautical Twilight 6:03 AM EDT 9:08 PM EDT
Astronomical Twilight 5:32 AM EDT 9:38 PM EDT
Moon 2:48 PM EDT (8/8) 1:15 AM EDT (8/8)
Length of Visible Light 14h 06m
Length of Day
13h 16m
First Quarter, 60% of the Moon is Illuminated
Aug 8
First Quarter
Aug 15
Full
Aug 23
Last Quarter
Aug 30
New
Sep 5
First Quarter

Hourly Weather History & Observations

Time (EDT) Temp. Heat Index Dew Point Humidity Pressure Visibility Wind Dir Wind Speed Gust Speed Precip Events Conditions
12:53 AM 82.9 °F 90.8 °F 75.9 °F 79% 29.99 in 10.0 mi WSW 8.1 mph - N/A   Partly Cloudy
1:53 AM 82.9 °F 90.8 °F 75.9 °F 79% 29.98 in 10.0 mi WSW 4.6 mph - N/A   Partly Cloudy
2:53 AM 82.9 °F 91.8 °F 77.0 °F 82% 29.96 in 10.0 mi West 6.9 mph - N/A   Clear
3:53 AM 82.9 °F 91.8 °F 77.0 °F 82% 29.95 in 10.0 mi WSW 5.8 mph - N/A   Scattered Clouds
4:53 AM 82.9 °F 90.8 °F 75.9 °F 79% 29.95 in 10.0 mi WSW 6.9 mph - N/A   Partly Cloudy
5:53 AM 82.9 °F 90.8 °F 75.9 °F 79% 29.96 in 10.0 mi SW 3.5 mph - N/A   Scattered Clouds
6:15 AM 80.1 °F 85.4 °F 75.9 °F 87% 29.96 in 10.0 mi Calm Calm - N/A   Mostly Cloudy
6:36 AM 79.0 °F - 75.9 °F 90% 29.97 in 10.0 mi East 4.6 mph - N/A   Scattered Clouds
6:53 AM 78.1 °F - 75.9 °F 93% 29.97 in 10.0 mi East 4.6 mph - N/A   Scattered Clouds
7:53 AM 80.1 °F 85.8 °F 77.0 °F 90% 29.98 in 10.0 mi Calm Calm - N/A   Partly Cloudy
8:53 AM 86.0 °F 98.3 °F 78.1 °F 77% 29.99 in 10.0 mi West 6.9 mph - N/A   Partly Cloudy
9:53 AM 87.1 °F 99.8 °F 78.1 °F 74% 30.00 in 10.0 mi West 8.1 mph - N/A   Partly Cloudy
10:53 AM 88.0 °F 101.3 °F 78.1 °F 72% 30.01 in 10.0 mi West 9.2 mph - N/A   Partly Cloudy
11:53 AM 89.1 °F 103.2 °F 78.1 °F 70% 30.01 in 10.0 mi West 9.2 mph - N/A   Partly Cloudy
12:53 PM 90.0 °F 104.5 °F 78.1 °F 68% 30.01 in 10.0 mi WNW 11.5 mph - N/A   Clear
1:53 PM 87.1 °F 97.3 °F 75.9 °F 69% 30.01 in 10.0 mi WNW 11.5 mph - N/A   Scattered Clouds
2:53 PM 90.0 °F 104.5 °F 78.1 °F 68% 29.99 in 10.0 mi West 9.2 mph - N/A   Scattered Clouds
3:53 PM 90.0 °F 102.5 °F 77.0 °F 65% 29.98 in 10.0 mi West 10.4 mph - N/A   Partly Cloudy
4:53 PM 90.0 °F 104.5 °F 78.1 °F 68% 29.97 in 10.0 mi West 12.7 mph - N/A   Clear
5:53 PM 88.0 °F 101.3 °F 78.1 °F 72% 29.98 in 10.0 mi WSW 8.1 mph - N/A   Mostly Cloudy
6:53 PM 89.1 °F 101.4 °F 77.0 °F 67% 29.98 in 10.0 mi West 10.4 mph - N/A   Partly Cloudy
7:53 PM 86.0 °F 96.9 °F 77.0 °F 74% 29.99 in 10.0 mi SW 9.2 mph - N/A   Mostly Cloudy
8:53 PM 84.9 °F 95.3 °F 77.0 °F 77% 29.99 in 10.0 mi WSW 8.1 mph - N/A   Clear
9:53 PM 84.9 °F 96.6 °F 78.1 °F 80% 30.00 in 10.0 mi West 9.2 mph - N/A   Scattered Clouds
10:05 PM 84.9 °F 96.6 °F 78.1 °F 80% 30.00 in 10.0 mi WSW 10.4 mph - N/A   Mostly Cloudy
10:27 PM 84.9 °F 95.3 °F 77.0 °F 77% 30.00 in 10.0 mi WSW 10.4 mph - N/A   Scattered Clouds
10:53 PM 84.9 °F 96.6 °F 78.1 °F 80% 30.00 in 10.0 mi West 9.2 mph - N/A   Partly Cloudy
11:18 PM 84.0 °F 94.8 °F 78.1 °F 82% 30.00 in 10.0 mi WSW 10.4 mph - N/A   Mostly Cloudy
11:30 PM 84.0 °F 94.8 °F 78.1 °F 82% 29.99 in 10.0 mi WSW 9.2 mph - N/A   Scattered Clouds
11:53 PM 84.0 °F 93.7 °F 77.0 °F 79% 29.99 in 10.0 mi West 9.2 mph - N/A   Clear